Lincoln, IL

5:58 AM CDT on June 23, 2017 (GMT -0500)
Lincoln

Weather History for KAAA - June, 2013

Change the Weather History Date:

Thursday, June 27, 2013

  Actual Average (KSPI) Record (KSPI)
Temperature  
Mean Temperature 84 °F -  
Max Temperature 92 °F 86 °F 104 °F (1934)
Min Temperature 76 °F 64 °F 48 °F (1905)
Cooling Degree Days 19    
Growing Degree Days 34 (Base 50)    
Moisture  
Dew Point 70 °F    
Average Humidity 69    
Maximum Humidity 94    
Minimum Humidity 39    
Precipitation  
Precipitation 0.00 in - - ()
Sea Level Pressure  
Sea Level Pressure 29.79 in    
Wind  
Wind Speed 3 mph (WNW)    
Max Wind Speed 10 mph    
Max Gust Speed 20 mph    
Visibility 9 miles    
Events      
Averages and records for this station are not official NWS values.
T = Trace of Precipitation, MM = Missing Value Source: NWS Daily Summary

Daily Weather History Graph

Daily Weather History Graph

Search for Another Location

Airport or City:

Trip Planner

Search our weather history database for the weather conditions in past years. The results will help you decide how hot, cold, wet, or windy it might be!

Date:

Astronomy

Jun. 27, 2013 Rise Set
Actual Time 5:30 AM CDT 8:30 PM CDT
Civil Twilight 4:57 AM CDT 9:03 PM CDT
Nautical Twilight 4:15 AM CDT 9:45 PM CDT
Astronomical Twilight 3:26 AM CDT 10:34 PM CDT
Moon 11:27 PM CDT (6/27) 10:31 AM CDT (6/27)
Length of Visible Light 16h 06m
Length of Day
15h 00m
Waning Gibbous, 76% of the Moon is Illuminated
Jun 27
Waning Gibbous
Jun 29
Last Quarter
Jul 8
New
Jul 15
First Quarter
Jul 22
Full

Hourly Weather History & Observations

Time (CDT) Temp. Heat Index Dew Point Humidity Pressure Visibility Wind Dir Wind Speed Gust Speed Precip Events Conditions
12:15 AM 77.4 °F - 74.7 °F 91% 29.77 in 5.0 mi Calm Calm - N/A   Clear
12:35 AM 77.0 °F - 74.7 °F 92% 29.77 in 5.0 mi Calm Calm - N/A   Clear
12:55 AM 77.5 °F - 75.2 °F 92% 29.77 in 7.0 mi West 3.5 mph - N/A   Scattered Clouds
1:15 AM 77.9 °F - 75.2 °F 91% 29.77 in 7.0 mi West 3.5 mph - N/A   Scattered Clouds
1:35 AM 77.9 °F - 75.2 °F 91% 29.77 in 7.0 mi Calm Calm - N/A   Scattered Clouds
1:55 AM 77.9 °F - 75.2 °F 91% 29.77 in 7.0 mi West 3.5 mph - N/A   Clear
2:15 AM 77.4 °F - 74.8 °F 92% 29.76 in 7.0 mi Calm Calm - N/A   Clear
2:35 AM 77.2 °F - 74.7 °F 92% 29.77 in 7.0 mi Calm Calm - N/A   Clear
2:55 AM 77.0 °F - 74.5 °F 92% 29.77 in 7.0 mi Calm Calm - N/A   Clear
3:15 AM 76.6 °F - 74.3 °F 92% 29.76 in 7.0 mi Calm Calm - N/A   Clear
3:35 AM 76.5 °F - 74.3 °F 93% 29.77 in 7.0 mi West 4.6 mph - N/A   Clear
3:55 AM 76.6 °F - 74.5 °F 93% 29.77 in 7.0 mi Calm Calm - N/A   Clear
4:15 AM 76.5 °F - 74.3 °F 93% 29.78 in 5.0 mi West 3.5 mph - N/A   Clear
4:35 AM 76.5 °F - 74.5 °F 94% 29.78 in 5.0 mi West 4.6 mph - N/A   Clear
4:55 AM 77.0 °F - 74.7 °F 92% 29.79 in 5.0 mi West 4.6 mph - N/A   Scattered Clouds
5:15 AM 76.3 °F - 74.3 °F 94% 29.79 in 5.0 mi West 3.5 mph - N/A   Scattered Clouds
5:35 AM 76.1 °F - 74.3 °F 94% 29.79 in 5.0 mi Calm Calm - N/A   Clear
5:55 AM 76.1 °F - 73.9 °F 93% 29.79 in 5.0 mi West 4.6 mph - N/A   Clear
6:15 AM 76.1 °F - 73.8 °F 92% 29.79 in 5.0 mi West 3.5 mph - N/A   Clear
6:35 AM 76.6 °F - 73.4 °F 90% 29.80 in 7.0 mi WNW 4.6 mph - N/A   Clear
6:55 AM 77.0 °F - 73.4 °F 89% 29.80 in 7.0 mi WNW 5.8 mph - N/A   Clear
7:15 AM 77.9 °F - 73.4 °F 86% 29.80 in 7.0 mi WNW 4.6 mph - N/A   Clear
7:35 AM 78.4 °F - 73.4 °F 84% 29.80 in 10.0 mi NW 5.8 mph - N/A   Clear
7:55 AM 79.2 °F - 73.4 °F 82% 29.80 in 10.0 mi NW 5.8 mph - N/A   Clear
8:15 AM 79.7 °F - 73.2 °F 80% 29.81 in 10.0 mi NW 4.6 mph - N/A   Clear
8:35 AM 81.0 °F 86.0 °F 73.4 °F 78% 29.82 in 10.0 mi WNW 8.1 mph - N/A   Clear
8:55 AM 81.5 °F 86.5 °F 72.9 °F 75% 29.82 in 10.0 mi NW 6.9 mph - N/A   Clear
9:15 AM 82.6 °F 88.1 °F 72.9 °F 72% 29.82 in 10.0 mi WNW 5.8 mph - N/A   Clear
9:35 AM 83.7 °F 90.1 °F 73.2 °F 71% 29.82 in 10.0 mi NW 5.8 mph - N/A   Clear
9:55 AM 84.4 °F 91.0 °F 73.2 °F 69% 29.83 in 10.0 mi NW 6.9 mph - N/A   Clear
10:15 AM 85.5 °F 92.6 °F 73.4 °F 67% 29.82 in 10.0 mi NW 6.9 mph - N/A   Clear
10:35 AM 86.2 °F 93.0 °F 72.7 °F 64% 29.82 in 10.0 mi WNW 8.1 mph - N/A   Clear
10:55 AM 86.7 °F 92.9 °F 71.8 °F 61% 29.83 in 10.0 mi WNW 8.1 mph - N/A   Clear
11:15 AM 87.1 °F 91.6 °F 69.4 °F 56% 29.83 in 10.0 mi WNW 9.2 mph - N/A   Clear
11:35 AM 87.3 °F 92.4 °F 70.5 °F 57% 29.83 in 10.0 mi WNW 6.9 mph - N/A   Clear
11:55 AM 88.7 °F 94.3 °F 70.9 °F 55% 29.84 in 10.0 mi WNW 9.2 mph 16.1 mph N/A   Clear
12:15 PM 88.5 °F 93.5 °F 70.0 °F 54% 29.84 in 10.0 mi NNW 8.1 mph - N/A   Clear
12:35 PM 89.4 °F 94.4 °F 69.6 °F 52% 29.83 in 10.0 mi WNW 5.8 mph - N/A   Clear
12:55 PM 90.1 °F 94.9 °F 69.1 °F 50% 29.83 in 10.0 mi NW 4.6 mph - N/A   Clear
1:15 PM 90.5 °F 95.1 °F 68.9 °F 49% 29.84 in 10.0 mi WNW 10.4 mph - N/A   Clear
1:35 PM 90.9 °F 93.5 °F 66.2 °F 44% 29.84 in 10.0 mi NW 9.2 mph - N/A   Clear
1:55 PM 91.8 °F 94.6 °F 66.0 °F 43% 29.84 in 10.0 mi NW 8.1 mph - N/A   Clear
2:15 PM 92.7 °F 95.8 °F 66.2 °F 42% 29.84 in 10.0 mi WNW 5.8 mph - N/A   Clear
2:35 PM 91.8 °F 93.0 °F 63.9 °F 39% 29.83 in 10.0 mi NW 3.5 mph - N/A   Clear
2:55 PM 91.4 °F 93.2 °F 64.8 °F 41% 29.82 in 10.0 mi WNW 3.5 mph - N/A   Clear
3:15 PM 90.0 °F 92.4 °F 65.8 °F 45% 29.82 in 10.0 mi WNW 3.5 mph - N/A   Clear
3:35 PM 90.1 °F 92.7 °F 66.2 °F 45% 29.83 in 10.0 mi WNW 3.5 mph - N/A   Clear
3:55 PM 88.9 °F 91.0 °F 65.7 °F 46% 29.82 in 10.0 mi Calm Calm - N/A   Clear
4:15 PM 88.9 °F 93.0 °F 68.5 °F 51% 29.81 in 10.0 mi Calm Calm - N/A   Clear
4:35 PM 89.1 °F 92.9 °F 68.2 °F 50% 29.80 in 10.0 mi West 3.5 mph - N/A   Clear
4:55 PM 88.2 °F 91.7 °F 68.0 °F 51% 29.79 in 10.0 mi West 6.9 mph - N/A   Clear
5:15 PM 88.0 °F 90.0 °F 65.7 °F 47% 29.79 in 10.0 mi WNW 8.1 mph 19.6 mph N/A   Clear
5:35 PM 86.2 °F 88.2 °F 65.3 °F 50% 29.77 in 10.0 mi Calm Calm - N/A   Clear
5:55 PM 85.1 °F 87.4 °F 66.2 °F 53% 29.77 in 10.0 mi West 3.5 mph - N/A   Clear
6:15 PM 84.6 °F 86.8 °F 66.2 °F 54% 29.77 in 10.0 mi West 5.8 mph - N/A   Clear
6:35 PM 84.9 °F 87.1 °F 65.8 °F 53% 29.76 in 10.0 mi West 5.8 mph - N/A   Clear
6:55 PM 85.5 °F 87.4 °F 65.5 °F 51% 29.76 in 10.0 mi West 3.5 mph - N/A   Clear
7:15 PM 84.6 °F 86.3 °F 65.3 °F 52% 29.75 in 10.0 mi Calm Calm - N/A   Clear
7:35 PM 83.8 °F 85.3 °F 64.8 °F 52% 29.75 in 10.0 mi West 5.8 mph - N/A   Clear
7:55 PM 82.4 °F 84.2 °F 65.3 °F 56% 29.74 in 10.0 mi Calm Calm - N/A   Clear
8:15 PM 81.0 °F 83.0 °F 65.7 °F 60% 29.74 in 10.0 mi Calm Calm - N/A   Clear
8:35 PM 80.1 °F 82.1 °F 65.8 °F 62% 29.74 in 10.0 mi Calm Calm - N/A   Clear
8:55 PM 79.3 °F - 66.0 °F 64% 29.74 in 10.0 mi Calm Calm - N/A   Clear
9:15 PM 78.6 °F - 66.2 °F 66% 29.75 in 10.0 mi Calm Calm - N/A   Clear
9:35 PM 77.4 °F - 66.6 °F 69% 29.76 in 10.0 mi Calm Calm - N/A   Clear
9:55 PM 77.2 °F - 66.6 °F 70% 29.77 in 10.0 mi Calm Calm - N/A   Clear
10:15 PM 77.2 °F - 66.4 °F 69% 29.77 in 10.0 mi Calm Calm - N/A   Clear
10:35 PM 77.5 °F - 66.6 °F 69% 29.78 in 10.0 mi West 3.5 mph - N/A   Clear
10:55 PM 77.4 °F - 66.4 °F 69% 29.79 in 10.0 mi West 4.6 mph - N/A   Clear
11:15 PM 77.2 °F - 66.2 °F 69% 29.80 in 10.0 mi West 4.6 mph - N/A   Clear
11:35 PM 77.0 °F - 66.2 °F 69% 29.80 in 10.0 mi West 3.5 mph - N/A   Clear
11:55 PM 76.3 °F - 66.2 °F 71% 29.80 in 10.0 mi West 3.5 mph - N/A   Clear